TimeMDT,TemperatureF,Dew PointF,Humidity,Sea Level PressureIn,VisibilityMPH,Wind Direction,Wind SpeedMPH,Gust SpeedMPH,PrecipitationIn,Events,Conditions,WindDirDegrees,DateUTC
12:55 AM,57.9,42.1,56,29.66,10.0,NNW,6.9,-,N/A,,Scattered Clouds,330,2012-10-16 06:55:00
1:55 AM,55.0,41.0,59,29.68,10.0,West,4.6,-,N/A,,Mostly Cloudy,280,2012-10-16 07:55:00
2:55 AM,52.0,42.1,69,29.67,10.0,WSW,5.8,-,N/A,,Clear,240,2012-10-16 08:55:00
3:55 AM,51.1,42.1,71,29.67,10.0,West,6.9,-,N/A,,Partly Cloudy,270,2012-10-16 09:55:00
4:55 AM,48.0,42.1,80,29.67,10.0,West,10.4,-,N/A,,Clear,260,2012-10-16 10:55:00
5:55 AM,48.0,41.0,77,29.66,10.0,West,9.2,-,N/A,,Clear,260,2012-10-16 11:55:00
6:55 AM,46.0,39.9,79,29.67,10.0,West,9.2,-,N/A,,Clear,260,2012-10-16 12:55:00
7:55 AM,48.9,39.9,71,29.65,10.0,WSW,6.9,-,N/A,,Clear,250,2012-10-16 13:55:00
8:55 AM,55.0,39.9,57,29.62,10.0,West,8.1,-,N/A,,Clear,260,2012-10-16 14:55:00
9:55 AM,64.9,39.9,40,29.57,10.0,WSW,9.2,-,N/A,,Clear,240,2012-10-16 15:55:00
10:55 AM,70.0,39.0,32,29.53,10.0,SW,15.0,-,N/A,,Clear,230,2012-10-16 16:55:00
11:55 AM,72.0,39.0,30,29.48,10.0,SSW,12.7,23.0,N/A,,Clear,210,2012-10-16 17:55:00
12:55 PM,73.9,39.0,28,29.42,10.0,South,18.4,23.0,N/A,,Clear,190,2012-10-16 18:55:00
1:55 PM,75.0,37.9,26,29.37,10.0,SSW,13.8,19.6,N/A,,Clear,210,2012-10-16 19:55:00
2:55 PM,75.0,37.9,26,29.31,10.0,South,12.7,-,N/A,,Clear,180,2012-10-16 20:55:00
3:40 PM,75.2,35.6,24,29.33,10.0,SW,13.8,-,N/A,,Clear,230,2012-10-16 21:40:00
3:55 PM,75.0,36.0,24,29.29,10.0,SW,12.7,-,N/A,,Clear,230,2012-10-16 21:55:00
4:55 PM,73.9,36.0,25,29.26,10.0,SW,8.1,-,N/A,,Clear,220,2012-10-16 22:55:00
5:55 PM,73.0,37.0,27,29.26,10.0,WNW,9.2,-,N/A,,Overcast,300,2012-10-16 23:55:00
6:55 PM,64.0,45.0,50,29.29,10.0,North,17.3,-,0.00,Rain,Light Rain,350,2012-10-17 00:55:00
7:55 PM,60.1,46.9,62,29.30,10.0,NNW,8.1,-,0.00,,Mostly Cloudy,330,2012-10-17 01:55:00
8:55 PM,62.1,46.0,56,29.34,10.0,WNW,24.2,34.5,N/A,,Overcast,290,2012-10-17 02:55:00
9:55 PM,54.0,51.1,90,29.34,10.0,WNW,29.9,39.1,0.02,Rain,Light Rain,290,2012-10-17 03:55:00
10:55 PM,53.1,50.0,89,29.37,10.0,WNW,21.9,31.1,0.00,Rain,Light Rain,290,2012-10-17 04:55:00
11:55 PM,52.0,51.1,97,29.41,10.0,WNW,11.5,-,0.03,Rain,Light Rain,300,2012-10-17 05:55:00